Zurück zum Katalog

COSMOS 465

AktivMilitärLEO
NORAD 5683·PAYLOAD·🇷🇺 Russia

Gestartet Dec 15, 1971 von Plesetsk Cosmodrome

Loading…

Nächste Überflüge (nächste 24 Stunden)

TLE

AktuellSource: Space-Track

Epoche: Sep 14, 2026, 03:29 UTC

1 05683U 71111A   26257.14555542  .00000020  00000-0  44981-4 0  9998
2 05683  74.0286 163.7120 0028333 261.1150 260.3529 13.74370938745565

Verfolge COSMOS 465 in Echtzeit mit AllMySat

Download on the App Store